[[{"header":{"parameterUnit":"m.s-1","parameterCategory":1,"la1":30.2991,"la2":30.254,"lo1":-89.0895,"lo2":-89.0444,"dy":0.0017,"dx":0.0017,"nx":28,"ny":28,"refTime":"2024-07-13T09:00:00:Z","depth":0,"parameterNumber":2,"parameterNumberName":"U-component_of_WINDS"},"data":[0,0,0,0,0,0,0,0,0,0,0,0,0,0,0,0,0,0,0,0,0,0,0,0,0,0,0,0,0,0,0,0,0,0,0,0,0,0,0,0,0,0,0,0,0,0,0,0,0,0,0,0,0,0,0,0,0,0,3.1928,3.1928,0,3.1904,3.1904,3.1903,3.1863,3.1862,3.1862,3.1861,3.1836,3.1836,3.1836,0,0,0,0,0,0,0,0,0,0,0,0,0,3.1942,3.1942,3.1928,3.1928,3.1928,3.1904,3.1904,3.1903,3.1863,3.1862,3.1861,3.1861,3.1836,3.1836,3.1836,0,0,0,0,0,0,0,0,0,0,0,0,0,3.1929,3.1942,3.1928,3.1905,3.1902,3.1904,3.1904,3.1903,3.1863,3.1862,3.1861,3.186,3.1836,3.1836,3.1836,3.1859,0,0,3.1836,3.1836,0,0,0,0,0,0,0,0,3.1929,3.1928,3.1909,3.1906,3.1904,3.1885,3.1899,3.1888,3.1864,3.1878,3.1861,3.186,3.1854,3.1852,3.185,3.1858,3.1857,3.1836,3.1837,3.1837,3.1837,0,0,0,0,0,0,0,3.193,3.1929,3.1919,3.1908,3.1905,3.1896,3.1893,3.1897,3.1872,3.1877,3.1874,3.1872,3.1852,3.185,3.1849,3.1856,3.1836,3.1837,3.1837,3.1837,3.1882,3.1883,0,0,0,0,0,0,3.1935,3.193,3.1919,3.1918,3.1914,3.1897,3.1893,3.1892,3.1872,3.1868,3.1873,3.187,3.185,3.1849,3.1848,3.1873,3.1837,3.1837,3.1837,3.1881,3.1883,3.1884,0,0,0,0,0,0,3.1935,3.1934,3.192,3.1923,3.1921,3.1898,3.1897,3.1893,3.189,3.1869,3.1864,3.1875,3.1849,3.1848,3.1857,3.1872,3.1837,3.1837,3.188,3.1882,3.1883,3.1924,0,0,0,0,0,0,3.1936,3.1934,3.1942,3.1924,3.1921,3.1929,3.1898,3.1893,3.1891,3.1887,3.187,3.1866,3.1848,3.1857,3.1857,3.1871,3.1837,3.1878,3.1881,3.1883,3.1921,3.1927,3.1931,0,0,0,0,0,3.1936,3.1954,3.1943,3.1942,3.193,3.193,3.1928,3.1907,3.1892,3.19,3.1886,3.1867,3.1871,3.1858,3.1858,3.1872,3.1877,3.188,3.1883,3.1918,3.1925,3.1931,0,0,0,0,0,0,3.1975,3.1951,3.1938,3.1951,3.1943,3.1923,3.1932,3.1915,3.1911,3.1908,3.1883,3.1879,3.1891,3.1883,3.1869,3.1894,3.1871,3.1874,3.1898,3.1905,3.191,3.1911,3.1837,0,0,0,0,0,3.1985,3.1987,3.1966,3.198,3.1976,3.1955,3.1954,3.1939,3.193,3.1926,3.1913,3.1905,3.1904,3.1904,3.1903,3.192,3.1916,3.193,3.1936,3.194,3.1942,3.1951,3.1957,3.1893,3.1893,3.1893,0,0,3.2006,3.1993,3.1996,3.1987,3.1979,3.1982,3.1952,3.1956,3.1958,3.1927,3.1934,3.1925,3.1914,3.1927,3.1932,3.192,3.196,3.1943,3.1947,3.1947,3.1955,3.1961,3.1966,3.1894,3.1894,3.1894,0,0,3.2045,3.2036,3.2046,3.2039,3.2027,3.2013,3.2016,3.1999,3.1991,3.1998,3.1975,3.1978,3.1977,3.197,3.1967,3.2006,3.1987,3.2006,3.2033,3.2042,3.2047,3.2052,3.2065,3.207,3.2009,3.2009,3.2009,0,3.2072,3.2075,3.2053,3.2059,3.2056,3.2028,3.2039,3.2033,3.2021,3.202,3.2007,3.2006,3.1997,3.2009,3.2018,3.2017,3.2019,3.2007,3.2048,3.2053,3.2056,3.2069,3.2074,3.2011,3.2011,3.201,3.201,0,3.2109,3.2111,3.2121,3.2111,3.2109,3.2117,3.2097,3.2098,3.2084,3.2072,3.208,3.2069,3.2064,3.2066,3.2052,3.2076,3.2069,3.2053,3.2029,3.2065,3.2076,3.2081,3.2014,3.2013,3.2013,3.2012,0,0,3.2169,3.2148,3.2152,3.2147,3.2133,3.2135,3.2143,3.2138,3.214,3.2134,3.2139,3.214,3.2125,3.2122,3.2107,3.2115,3.2147,3.2098,3.2097,3.2107,3.2172,3.2184,3.219,3.2135,3.2136,3.2137,3.2173,0,3.2205,3.2215,3.2197,3.2212,3.2214,3.2189,3.2196,3.2189,3.2178,3.2179,3.2167,3.2168,3.2149,3.2146,3.2154,3.2141,3.2159,3.2139,3.214,3.214,3.2142,3.2196,3.2208,3.2242,3.2177,3.2178,3.2179,0,3.2246,3.2242,3.2258,3.2244,3.2244,3.225,3.2245,3.2247,3.2238,3.223,3.2227,3.221,3.2217,3.2196,3.2205,3.2191,3.2191,3.2186,3.2187,3.2185,3.2161,3.2194,3.2253,3.2258,3.2186,3.2185,3.2185,0,3.2288,3.2287,3.2296,3.2293,3.2277,3.2282,3.2276,3.2266,3.2265,3.2262,3.2261,3.2258,3.2257,3.2255,3.2238,3.2224,3.225,3.2227,3.2243,3.2244,3.2248,3.2248,3.2306,3.2251,3.225,3.225,3.225,0,3.2329,3.2339,3.2315,3.232,3.2332,3.2311,3.2323,3.2314,3.2306,3.231,3.2289,3.2293,3.2271,3.2273,3.226,3.227,3.227,3.2263,3.226,3.2265,3.2265,3.2263,3.226,3.2252,3.2251,3.2251,3.2251,0,3.2377,3.2361,3.2369,3.2354,3.235,3.2359,3.2346,3.2351,3.234,3.2345,3.2345,3.2328,3.2329,3.2313,3.2311,3.2303,3.2318,3.2311,3.2321,3.2318,3.2334,3.2333,3.2392,3.2399,3.234,3.2341,3.2341,0,3.2403,3.241,3.2396,3.2397,3.2392,3.2394,3.2393,3.2374,3.2374,3.2366,3.2372,3.2372,3.237,3.2374,3.2361,3.236,3.2352,3.2373,3.2351,3.2356,3.2351,3.235,3.2351,3.2377,3.2378,3.2378,3.2379,0,3.2451,3.2443,3.2442,3.244,3.2439,3.2436,3.2432,3.2434,3.2414,3.2415,3.2416,3.2415,3.2414,3.2414,3.2411,3.2404,3.2388,3.2386,3.2389,3.2394,3.2399,3.2395,3.2332,3.2384,3.2384,3.2383,3.2383,3.2383,3.2488,3.2493,3.2484,3.2485,3.248,3.2477,3.248,3.247,3.2471,3.2468,3.2457,3.2461,3.2453,3.2447,3.2443,3.2445,3.2435,3.244,3.2441,3.2443,3.2445,3.24,3.2445,3.2445,3.2445,3.2444,3.2444,0,3.2534,3.2527,3.2528,3.2523,3.2523,3.2509,3.2504,3.2505,3.2508,3.2503,3.2502,3.2504,3.2504,3.2493,3.2492,3.2496,3.2489,3.2496,3.2495,3.2494,3.2455,3.2452,3.2502,3.2502,3.2502,3.2502,3.2502,3.2502,3.2558,3.2566,3.2558,3.2564,3.2558,3.2561,3.2559,3.2556,3.2551,3.2554,3.2555,3.2547,3.2539,3.2538,3.2538,3.2535,3.2535,3.2545,3.2539,3.2502,3.2497,3.2491,3.2488,3.2545,3.2545,3.2577,3.2578,3.2578]},{"header":{"parameterUnit":"m.s-1","parameterCategory":1,"la1":30.2991,"la2":30.254,"lo1":-89.0895,"lo2":-89.0444,"dy":0.0017,"dx":0.0017,"nx":28,"ny":28,"refTime":"2024-07-13T09:00:00:Z","depth":0,"parameterNumber":3,"parameterNumberName":"V-component_of_WINDS"},"data":[0,0,0,0,0,0,0,0,0,0,0,0,0,0,0,0,0,0,0,0,0,0,0,0,0,0,0,0,0,0,0,0,0,0,0,0,0,0,0,0,0,0,0,0,0,0,0,0,0,0,0,0,0,0,0,0,0,0,1.0585,1.0587,0,1.0707,1.0708,1.071,1.0777,1.0778,1.0778,1.0778,1.0897,1.0899,1.0902,0,0,0,0,0,0,0,0,0,0,0,0,0,1.0406,1.0409,1.0585,1.0587,1.0588,1.0707,1.0708,1.071,1.0777,1.0778,1.0778,1.0778,1.0896,1.0899,1.0903,0,0,0,0,0,0,0,0,0,0,0,0,0,1.0501,1.041,1.0585,1.0636,1.0642,1.0706,1.0708,1.071,1.0777,1.0778,1.0778,1.0778,1.0894,1.0899,1.0903,1.0924,0,0,1.0917,1.0919,0,0,0,0,0,0,0,0,1.0496,1.0508,1.0627,1.0633,1.064,1.0728,1.0689,1.0782,1.0777,1.0726,1.0778,1.0778,1.084,1.0849,1.087,1.0929,1.0934,1.0917,1.092,1.0922,1.0923,0,0,0,0,0,0,0,1.0489,1.0503,1.0633,1.0629,1.0636,1.0652,1.0665,1.0707,1.0779,1.073,1.0736,1.0749,1.0843,1.0866,1.0874,1.0936,1.0917,1.0921,1.0924,1.0925,1.1017,1.1017,0,0,0,0,0,0,1.0475,1.0497,1.0629,1.0637,1.0567,1.0654,1.067,1.0699,1.0779,1.0792,1.0749,1.0752,1.0858,1.0868,1.0878,1.0907,1.0922,1.0926,1.0928,1.1017,1.1017,1.1017,0,0,0,0,0,0,1.0471,1.0486,1.0624,1.0568,1.0587,1.0657,1.0689,1.0701,1.0724,1.0793,1.0806,1.076,1.0859,1.0872,1.0912,1.0912,1.0928,1.0932,1.1017,1.1017,1.1017,1.0966,0,0,0,0,0,0,1.0466,1.0484,1.0494,1.0568,1.059,1.0658,1.0689,1.0703,1.0732,1.0738,1.0806,1.0818,1.086,1.0905,1.0917,1.0919,1.0935,1.1018,1.1017,1.1017,1.0968,1.0964,1.096,0,0,0,0,0,1.0459,1.0474,1.0494,1.051,1.0604,1.0658,1.067,1.072,1.0732,1.0742,1.0786,1.0816,1.0911,1.0909,1.0922,1.0926,1.1018,1.1017,1.1017,1.0969,1.0964,1.096,0,0,0,0,0,0,1.0396,1.0484,1.0508,1.0548,1.0595,1.0669,1.0683,1.0713,1.0757,1.0759,1.0818,1.0833,1.0867,1.09,1.0897,1.0949,1.0967,1.0969,1.0926,1.0922,1.0919,1.091,1.0939,0,0,0,0,0,1.0387,1.0425,1.05,1.0527,1.055,1.0612,1.0637,1.0672,1.0723,1.0742,1.0789,1.0836,1.0876,1.0901,1.0942,1.0973,1.0988,1.0982,1.0978,1.0974,1.0975,1.0993,1.0991,1.1015,1.1015,1.1015,0,0,1.0368,1.0421,1.0441,1.0516,1.0557,1.0593,1.0628,1.0666,1.0693,1.0747,1.0789,1.0825,1.088,1.0915,1.0933,1.0944,1.0972,1.0974,1.0971,1.0974,1.0993,1.099,1.0988,1.1015,1.1015,1.1015,0,0,1.0353,1.0397,1.0425,1.0466,1.0527,1.0569,1.0575,1.0645,1.0672,1.0715,1.0756,1.0788,1.0857,1.0894,1.0922,1.0921,1.095,1.0932,1.0913,1.0929,1.0928,1.0926,1.0925,1.0924,1.0933,1.0933,1.0933,0,1.0321,1.038,1.0435,1.047,1.0501,1.0554,1.0582,1.0618,1.0689,1.0708,1.072,1.0807,1.0847,1.0892,1.0892,1.0913,1.0921,1.0925,1.0924,1.0923,1.0922,1.0922,1.0921,1.093,1.0931,1.0931,1.0931,0,1.0337,1.0377,1.0392,1.0462,1.0494,1.0525,1.0584,1.061,1.0641,1.0681,1.0723,1.0774,1.0826,1.0839,1.0869,1.0888,1.0893,1.0913,1.0932,1.0917,1.0917,1.0917,1.0927,1.0928,1.0929,1.0929,0,0,1.0285,1.0386,1.039,1.0422,1.0494,1.0525,1.0558,1.0611,1.0632,1.0678,1.0707,1.0763,1.0783,1.0814,1.0849,1.0864,1.0859,1.0883,1.0885,1.0876,1.0881,1.0865,1.0864,1.0879,1.0879,1.0879,1.0877,0,1.028,1.0344,1.0394,1.0438,1.0475,1.0526,1.0555,1.0601,1.0638,1.0673,1.0714,1.0753,1.0777,1.0796,1.0813,1.0856,1.0861,1.0857,1.0904,1.0905,1.0888,1.0865,1.0848,1.0843,1.0877,1.0877,1.0877,0,1.0282,1.0329,1.0377,1.0446,1.0463,1.0488,1.0541,1.0574,1.0627,1.0653,1.0689,1.0725,1.076,1.0776,1.0824,1.0821,1.0843,1.0866,1.0867,1.0873,1.089,1.0869,1.0843,1.0842,1.0878,1.0878,1.0878,0,1.0238,1.0314,1.0353,1.0379,1.0459,1.0476,1.051,1.0563,1.0592,1.0636,1.0655,1.0703,1.0728,1.0763,1.0811,1.0818,1.0854,1.0874,1.0875,1.0873,1.088,1.0878,1.0856,1.0894,1.0894,1.0894,1.0894,0,1.0227,1.0254,1.0334,1.0358,1.0389,1.0447,1.0476,1.0514,1.0561,1.0591,1.0637,1.0664,1.0726,1.076,1.0797,1.0831,1.0842,1.0863,1.0873,1.0859,1.0856,1.0874,1.0875,1.0894,1.0894,1.0894,1.0894,0,1.0183,1.0238,1.0284,1.0357,1.0376,1.0396,1.0458,1.0482,1.0522,1.056,1.0572,1.0635,1.0677,1.0729,1.0787,1.0812,1.0842,1.0856,1.0824,1.083,1.0828,1.0827,1.0815,1.0816,1.0854,1.0853,1.0853,0,1.0172,1.0195,1.0271,1.0296,1.0329,1.0368,1.0398,1.0455,1.0483,1.0545,1.0561,1.0608,1.0648,1.0713,1.0762,1.0806,1.0822,1.0815,1.0829,1.0814,1.0821,1.0819,1.0821,1.0811,1.081,1.081,1.0809,0,1.0146,1.0172,1.0215,1.0266,1.0301,1.0344,1.0389,1.0406,1.0471,1.05,1.0546,1.0577,1.0637,1.0682,1.0733,1.0766,1.0797,1.0804,1.0807,1.0793,1.0773,1.0783,1.0814,1.0804,1.0805,1.0805,1.0805,1.0806,1.0118,1.014,1.0198,1.0243,1.0283,1.0324,1.035,1.0394,1.0434,1.0489,1.0519,1.0563,1.0615,1.0687,1.0718,1.0752,1.0764,1.0767,1.0768,1.0768,1.0763,1.0768,1.0762,1.0762,1.0762,1.0762,1.0762,0,1.0094,1.0134,1.0175,1.0237,1.0272,1.0302,1.0352,1.0379,1.0418,1.0464,1.0504,1.0555,1.0598,1.0651,1.0698,1.0715,1.073,1.0725,1.0724,1.0731,1.0751,1.0744,1.0712,1.0712,1.0712,1.0712,1.0712,1.0712,1.0085,1.0125,1.0157,1.0216,1.0256,1.0301,1.0327,1.0364,1.0402,1.0458,1.0495,1.053,1.0579,1.063,1.067,1.0685,1.0699,1.0689,1.0707,1.0725,1.0729,1.0734,1.0727,1.0692,1.0692,1.0685,1.0685,1.0684]}]]